TimeEST,TemperatureF,Dew PointF,Humidity,Sea Level PressureIn,VisibilityMPH,Wind Direction,Wind SpeedMPH,Gust SpeedMPH,PrecipitationIn,Events,Conditions,WindDirDegrees,DateUTC
12:34 AM,19.4,10.4,68,30.05,9.0,NW,4.6,-,N/A,,Scattered Clouds,310,2013-02-03 05:34:00
12:53 AM,19.0,10.0,68,30.07,10.0,NW,4.6,-,N/A,,Mostly Cloudy,310,2013-02-03 05:53:00
1:53 AM,17.1,9.0,71,30.04,10.0,Calm,Calm,-,N/A,,Overcast,0,2013-02-03 06:53:00
2:53 AM,16.0,8.1,71,30.03,10.0,Calm,Calm,-,N/A,,Clear,0,2013-02-03 07:53:00
3:53 AM,14.0,8.1,77,30.01,8.0,Calm,Calm,-,N/A,,Overcast,0,2013-02-03 08:53:00
4:53 AM,17.1,10.9,77,29.99,6.0,Calm,Calm,-,0.00,,Haze,0,2013-02-03 09:53:00
5:20 AM,17.6,10.4,73,29.97,1.5,West,3.5,-,0.00,Snow,Light Snow,280,2013-02-03 10:20:00
5:34 AM,17.6,10.4,73,29.97,3.0,WNW,3.5,-,0.00,Snow,Light Snow,300,2013-02-03 10:34:00
5:53 AM,17.1,10.9,77,30.00,5.0,West,3.5,-,0.00,Snow,Light Snow,260,2013-02-03 10:53:00
6:07 AM,17.6,10.4,73,29.97,8.0,WSW,3.5,-,0.00,,Overcast,250,2013-02-03 11:07:00
6:53 AM,17.1,10.9,77,30.01,9.0,Calm,Calm,-,0.00,,Overcast,0,2013-02-03 11:53:00
7:53 AM,18.0,12.9,81,30.01,7.0,WNW,3.5,-,0.00,,Overcast,300,2013-02-03 12:53:00
8:10 AM,17.6,12.2,79,29.98,4.0,WNW,3.5,-,N/A,,Haze,290,2013-02-03 13:10:00
8:21 AM,17.6,14.0,86,29.98,2.0,WNW,3.5,-,N/A,,Overcast,290,2013-02-03 13:21:00
8:29 AM,17.6,15.8,93,29.98,1.5,Calm,Calm,-,N/A,,Overcast,0,2013-02-03 13:29:00
8:53 AM,18.0,15.1,88,30.02,1.8,Calm,Calm,-,N/A,,Overcast,0,2013-02-03 13:53:00
9:19 AM,17.6,15.8,93,29.98,2.0,Calm,Calm,-,N/A,,Overcast,0,2013-02-03 14:19:00
9:48 AM,19.4,15.8,86,29.98,1.2,Calm,Calm,-,N/A,,Overcast,0,2013-02-03 14:48:00
9:53 AM,19.0,16.0,88,30.02,1.2,Calm,Calm,-,N/A,,Overcast,0,2013-02-03 14:53:00
10:53 AM,19.9,17.1,89,30.02,1.2,West,3.5,-,N/A,,Overcast,280,2013-02-03 15:53:00
11:53 AM,21.0,19.0,92,30.05,1.5,West,9.2,-,N/A,,Overcast,270,2013-02-03 16:53:00
12:22 PM,21.2,19.4,93,30.02,2.0,West,10.4,-,N/A,,Overcast,270,2013-02-03 17:22:00
12:53 PM,23.0,19.0,85,30.05,2.5,WNW,11.5,-,0.00,Snow,Light Snow,290,2013-02-03 17:53:00
1:37 PM,24.8,19.4,80,30.02,3.0,West,9.2,17.3,0.00,Snow,Light Snow,280,2013-02-03 18:37:00
1:53 PM,24.1,19.0,81,30.06,3.0,WNW,11.5,-,0.00,,Haze,290,2013-02-03 18:53:00
2:07 PM,24.8,19.4,80,30.03,3.0,WNW,10.4,-,0.00,Snow,Light Snow,290,2013-02-03 19:07:00
2:16 PM,24.8,19.4,80,30.03,2.5,WNW,8.1,16.1,0.00,Snow,Light Snow,290,2013-02-03 19:16:00
2:33 PM,24.8,19.4,80,30.04,1.5,West,10.4,-,0.00,Snow,Light Snow,280,2013-02-03 19:33:00
2:53 PM,26.1,19.9,78,30.07,1.2,WNW,8.1,18.4,0.00,Snow,Light Snow,290,2013-02-03 19:53:00
3:21 PM,26.6,21.2,80,30.04,2.5,WNW,11.5,17.3,0.00,Snow,Light Snow,300,2013-02-03 20:21:00
3:28 PM,26.6,19.4,74,30.04,4.0,WNW,11.5,18.4,0.00,Snow,Light Snow,300,2013-02-03 20:28:00
3:53 PM,27.0,17.1,66,30.09,4.0,NW,9.2,20.7,0.00,Snow,Light Snow,320,2013-02-03 20:53:00
4:03 PM,26.6,17.6,69,30.06,1.8,NW,10.4,19.6,0.00,Snow,Light Snow,310,2013-02-03 21:03:00
4:19 PM,26.6,19.4,74,30.07,0.8,NW,6.9,17.3,0.00,Snow,Light Snow,310,2013-02-03 21:19:00
4:32 PM,24.8,19.4,80,30.07,1.2,WNW,10.4,19.6,0.00,Snow,Light Snow,290,2013-02-03 21:32:00
4:53 PM,25.0,19.9,81,30.11,1.5,WNW,8.1,-,0.00,Snow,Light Snow,290,2013-02-03 21:53:00
5:03 PM,24.8,19.4,80,30.08,2.5,WNW,8.1,-,0.00,Snow,Light Snow,290,2013-02-03 22:03:00
5:11 PM,24.8,19.4,80,30.08,4.0,West,9.2,-,0.00,,Haze,280,2013-02-03 22:11:00
5:30 PM,24.8,19.4,80,30.08,3.0,NW,5.8,-,0.00,Snow,Light Snow,310,2013-02-03 22:30:00
5:53 PM,25.0,17.1,72,30.13,10.0,WNW,9.2,-,0.00,,Overcast,290,2013-02-03 22:53:00
6:03 PM,24.8,17.6,74,30.10,8.0,WNW,5.8,-,N/A,,Overcast,300,2013-02-03 23:03:00
6:53 PM,21.9,12.9,68,30.14,10.0,Calm,Calm,-,N/A,,Partly Cloudy,0,2013-02-03 23:53:00
7:53 PM,15.1,10.0,80,30.14,10.0,Calm,Calm,-,N/A,,Clear,0,2013-02-04 00:53:00
8:53 PM,14.0,10.0,84,30.14,10.0,Calm,Calm,-,N/A,,Mostly Cloudy,0,2013-02-04 01:53:00
9:53 PM,16.0,12.0,84,30.15,10.0,Calm,Calm,-,N/A,,Overcast,0,2013-02-04 02:53:00
10:53 PM,21.0,15.1,78,30.12,10.0,Calm,Calm,-,N/A,,Overcast,0,2013-02-04 03:53:00
11:53 PM,19.9,12.9,74,30.13,10.0,Calm,Calm,-,N/A,,Partly Cloudy,0,2013-02-04 04:53:00